Location: Centerville
(32.8776°N, 96.6203°W)
Time: 10:59:56
(UTC+00:00)

Cosmos 2237 - Pass Details

Date: 28 October 2021
Orbit: 845 x 856 km, 70.8° (Epoch: 08 December)

Event Time Altitude Azimuth Distance (km) Brightness Sun altitude
Exits shadow 10:24:31 38° 171° (S) 1,267 5.1 -29.2°
Drops below altitude 10° 10:27:56 10° 166° (SSE) 2,470 6.7 -28.5°
Sets 10:30:23 0° 164° (SSE) 3,401 7.5 -28.0°
